Regional Weather Roundup
Issued by NWS

Home | Current Version | Previous Version | Text Only | Print | Product List | Glossary Off
Versions: 1 2 3 4 5 6 7 8 9 10 11 12 13 14 15 16 17 18 19 20 21 22 23 24 25 26 27 28 29 30 31 32 33 34 35 36 37 38 39 40 41 42 43 44 45 46 47 48 49 50

000
ASUS43 KDTX 262201
RWRMI
MICHIGAN HOURLY REGIONAL WEATHER ROUNDUP
NATIONAL WEATHER SERVICE DETROIT/PONTIAC MI
500 PM EST THU FEB 26 2015

NOTE: "FAIR" INDICATES FEW OR NO CLOUDS BELOW 12,000 FEET WITH NO
SIGNIFICANT WEATHER AND/OR OBSTRUCTION TO VISIBILITY.

MIZ047>049-052>055-059>063-066>070-074>076-081>083-262300-
SOUTHEAST LOWER MICHIGAN

CITY           SKY/WX    TMP DP  RH WIND       PRES   REMARKS
ADRIAN         CLOUDY    14   1  56 N10       30.20R WCI   1
ALMA           SUNNY     13  -4  48 NW10      30.23R WCI  -1
ANN ARBOR      CLOUDY    14   1  56 N7        30.19R WCI   4
BAD AXE        MOSUNNY    8  -1  66 N8        30.22R WCI  -5
CARO           SUNNY     10  -2  59 N5        30.22R WCI   1
DETROIT CITY   CLOUDY    16   2  54 NE10      30.19R WCI   4
DETROIT        FLURRIES  15   3  59 NW9       30.20R WCI   3
FLINT          LGT SNOW  13  -1  54 N13       30.21R WCI  -2
GROSSE ILE     LGT SNOW  14  10  85 E3        30.18R
HILLSDALE      CLOUDY    13   2  59 N8        30.16R WCI   2
HOWELL         PTSUNNY   10  -1  59 N6        30.19R WCI   1

CITY           SKY/WX    TMP DP  RH WIND       PRES   REMARKS
JACKSON        MOSUNNY   12   0  58 NW10      30.19R WCI  -1
LAMBERTVILLE   CLOUDY    18   5  57 N7        30.20R WCI   8
LANSING        SUNNY     11  -3  53 N7        30.22R WCI   0
LAPEER         CLOUDY    11  -2  56 N9        30.20R WCI  -2
MASON          MOSUNNY   10  -1  59 NW9       30.20R WCI  -2
MONROE         CLOUDY    16   5  62 N10       30.18R WCI   3
MT. CLEMENS    CLOUDY    13   2  62 N13       30.18R WCI  -2
PONTIAC        CLOUDY    11   0  61 NW13      30.17R WCI  -4
PORT HOPE        N/A     10  -2  58 N8        30.22S WCI  -2
PORT HURON     PTSUNNY   10   1  67 N9        30.21R WCI  -2
TRI CITIES     SUNNY     12   0  58 E8        30.23S WCI   0
TROY           PTSUNNY   15   0  50 N9        30.21R WCI   3
SAGINAW HB     SUNNY     12   1  62 N8        30.24R WCI   1
$$
MIZ043>046-050>051-056>058-064>065-071>073-077>080-262300-
SOUTHWEST LOWER MICHIGAN

CITY           SKY/WX    TMP DP  RH WIND       PRES   REMARKS
BATTLE CREEK   MOSUNNY   15  -1  49 NE8       30.20R WCI   4
BENTON HARBOR  CLOUDY    13   0  56 N9G17     30.26R WCI   1
BIG RAPIDS     SUNNY     12  -6  45 N9        30.20R WCI   0
COLDWATER      CLOUDY    14   2  59 NE7       30.19R WCI   3
FREMONT        FAIR      12  -8  39 NW12      30.23S WCI  -2
HOLLAND        MOSUNNY   15  -5  40 E5        30.25R WCI   8
GRAND RAPIDS   PTSUNNY   14  -6  40 VRB5      30.22R WCI   6
IONIA          FAIR      13  -6  41 N5        30.21R WCI   5
KALAMAZOO      SUNNY     14  -1  51 N12       30.21R WCI   0
LUDINGTON      SUNNY     10  -4  51 N13G20    30.29R WCI  -5
MARSHALL       SUNNY     11  -3  53 NW5       30.20R WCI   3
MOUNT PLEASANT SUNNY     14  -5  43 N7        30.21S WCI   3
MUSKEGON       MOSUNNY   14  -8  37 NW12      30.26R WCI   0
SOUTH HAVEN    PTSUNNY   15  -2  48 N7        30.25R WCI   5
$$
MIZ016>042-262300-
NORTHERN LOWER MICHIGAN

CITY           SKY/WX    TMP DP  RH WIND       PRES   REMARKS
ALPENA         SUNNY      7  -7  52 N12       30.24R WCI  -8
BEAVER ISLAND  MOSUNNY    7  -6  55 W3        30.29R
BELLAIRE       SUNNY      7 -12  41 NW6       30.30S WCI  -3
CADILLAC       SUNNY      5  -9  52 N9        30.19R WCI  -9
CHARLEVOIX     SUNNY      5  -8  56 CALM      30.32S
FRANKFORT      CLOUDY     6  -1  71 NE3       30.31R HAZE
GAYLORD        SUNNY      5 -11  47 VRB6      30.19R WCI  -6
GRAYLING       SUNNY      8  -8  47 NW10      30.20R WCI  -6
HARBOR SPRINGS SUNNY      6 -10  47 N6        30.27R WCI  -4
HOUGHTON LAKE  SUNNY     10  -9  42 NW8       30.18S WCI  -2
MANISTEE       SUNNY      9  -8  47 N9        30.29S WCI  -5
OSCODA         SUNNY      8  -2  64 NE9       30.22S WCI  -5
ROGERS CITY    SUNNY      7  -4  61 NW12G17   30.26S WCI  -9
TRAVERSE CITY  MOSUNNY    5  -9  52 NE8       30.29S WCI  -8
$$
MIZ007>008-015-262300-
EASTERN UPPER MICHIGAN

CITY           SKY/WX    TMP DP  RH WIND       PRES   REMARKS
KINROSS        SUNNY      3  -6  66 NW14      30.25S WCI -15
MACKINAC ISLAN CLOUDY     4  -5  63 SW6       30.25S WCI  -6
NEWBERRY       MOSUNNY    4  -6  62 NW9G20    30.25S WCI -10
S. S. MARIE    SUNNY      2  -9  60 NW13      30.26S WCI -15
MUNISING         N/A      6  -5  60 N9        30.32S WCI  -8
$$
MIZ004>006-011>014-085-262300-
CENTRAL UPPER MICHIGAN

CITY           SKY/WX    TMP DP  RH WIND       PRES   REMARKS
MANISTIQUE     SUNNY      7  -6  56 NW13      30.29R WCI -10
ESCANABA       SUNNY     10 -11  37 NE3       30.31R
MENOMINEE      SUNNY      9  -2  61 SE7       30.30S WCI  -3
SAWYER-GWINN   SUNNY      5  -6  61 E8        30.24S WCI  -8
$$
MIZ001>003-009>011-084-262300-
WESTERN UPPER MICHIGAN

CITY           SKY/WX    TMP DP  RH WIND       PRES   REMARKS
IRON MOUNTAIN  SUNNY     10  -9  42 NW14      30.24S WCI  -6
HOUGHTON       CLOUDY     3  -6  66 W18       30.28R HAZE    WCI -17
COPPER HARBOR    N/A      4  -6  63 NW13G22   30.31S WCI -13
IRONWOOD       SUNNY      5  -8  56 NW10      30.29S WCI -10
$$

ABBREVIATIONS USED IN REMARKS
   TC - TEMPERATURE IN CELSIUS
  WCI - WIND CHILL INDEX
   HX - HEAT INDEX
  VSB - VISIBILITY




USA.gov is the U.S. government's official web portal to all federal, state and local government web resources and services.